Location: ??
(35.4032°N, 139.3073°E)
Time: 02:33:06
(UTC+00:00)

NOSS 0 Rocket - Pass Details

Date: 13 April 2024
Orbit: 935 x 954 km, 70.0° (Epoch: 25 May)

Event Time Altitude Azimuth Distance (km) Brightness Sun altitude
Exits shadow 17:12:24 60° 66° (ENE) 1,061 4.3 -33.0°
Drops below altitude 10° 17:17:39 10° 28° (NNE) 2,649 7.0 -32.2°
Sets 17:20:12 0° 26° (NNE) 3,597 7.9 -31.9°
